Date String (YYYY-MM-DD hh:mm:ss) UTC,Instrument flags,Ambient pressure (hPa),Sample flow (lpm),Bypass flow (lpm),Sample temperature (°C),Ambient temperature (°C),ASC tube jacket temperature (°C),LED temperature (°C),Box temperature (°C),Sample RH (%),Span deviation,Mass concentration (μg/m³),Mass concentration (μg/m³),Mass concentration (μg/m³)
DateTimeUTC,F1_M11,P_M11,Q1_M11,Q2_M11,T1_M11,T2_M11,T3_M11,T4_M11,T5_M11,U1_M11,ZSPAN_M11,X0_M11,X2_M11,X1_M11
2021-10-30 13:00:00,,0824.0,5.01,0.00,28.5,27.6,00.0,37.5,30.3,09.3,0000.0,0000.80,0000.55,0000.49
2021-10-30 13:01:00,,0823.9,5.00,0.00,28.5,27.7,00.0,37.5,30.3,09.3,0000.0,0000.79,0000.55,0000.49
2021-10-30 13:02:00,,0824.0,5.00,0.00,28.5,27.7,00.0,37.5,30.3,09.3,0000.0,0000.80,0000.55,0000.49
2021-10-30 13:03:00,,0824.0,5.00,0.00,28.5,27.7,00.0,37.5,30.3,09.3,0000.0,0000.84,0000.57,0000.49
2021-10-30 13:04:00,,0824.0,5.01,0.00,28.5,27.7,00.0,37.5,30.3,09.3,0000.0,0000.91,0000.58,0000.50
2021-10-30 13:05:00,,0823.9,5.00,0.00,28.5,27.7,00.0,37.5,30.3,09.2,0000.0,0002.00,0000.63,0000.50
2021-10-30 13:06:00,,0824.0,4.99,0.00,28.6,27.7,00.0,37.5,30.4,09.2,0000.0,0002.12,0000.64,0000.50
2021-10-30 13:07:00,,0823.9,4.99,0.00,28.6,27.7,00.0,37.5,30.4,09.2,0000.0,0002.32,0000.70,0000.51
2021-10-30 13:08:00,,0824.0,5.00,0.00,28.6,27.7,00.0,37.5,30.4,09.2,0000.0,0002.57,0000.76,0000.51
2021-10-30 13:09:00,,0824.0,5.02,0.00,28.6,27.7,00.0,37.5,30.4,09.1,0000.0,0003.19,0000.87,0000.52
2021-10-30 13:10:00,,0824.0,4.99,0.00,28.6,27.7,00.0,37.6,30.4,09.1,0000.0,0003.42,0000.96,0000.53
2021-10-30 13:11:00,,0824.0,5.01,0.00,28.6,27.7,00.0,37.6,30.4,09.1,0000.0,0003.77,0001.06,0000.54
2021-10-30 13:12:00,,0824.0,5.01,0.00,28.6,27.7,00.0,37.6,30.4,09.1,0000.0,0003.96,0001.12,0000.54
2021-10-30 13:13:00,,0824.0,5.00,0.00,28.6,27.7,00.0,37.6,30.4,09.1,0000.0,0004.12,0001.17,0000.55
2021-10-30 13:14:00,,0824.1,5.00,0.00,28.6,27.7,00.0,37.6,30.4,09.1,0000.0,0004.20,0001.19,0000.55
2021-10-30 13:15:00,,0824.1,5.00,0.00,28.6,27.7,00.0,37.6,30.4,09.1,0000.0,0004.19,0001.22,0000.55
2021-10-30 13:16:00,,0824.1,5.01,0.00,28.6,27.7,00.0,37.6,30.4,09.1,0000.0,0003.22,0001.22,0000.55
2021-10-30 13:17:00,,0824.0,4.98,0.00,28.6,27.7,00.0,37.6,30.4,09.1,0000.0,0003.13,0001.22,0000.55
2021-10-30 13:18:00,,0824.0,5.00,0.00,28.6,27.7,00.0,37.6,30.4,09.1,0000.0,0003.25,0001.22,0000.55
2021-10-30 13:19:00,,0824.0,5.01,0.00,28.6,27.7,00.0,37.6,30.4,09.1,0000.0,0003.82,0001.23,0000.55
2021-10-30 13:20:00,,0824.1,5.01,0.00,28.6,27.7,00.0,37.6,30.3,09.1,0000.0,0003.53,0001.17,0000.55
2021-10-30 13:21:00,,0824.1,4.99,0.00,28.6,27.7,00.0,37.6,30.3,09.1,0000.0,0003.64,0001.12,0000.55
2021-10-30 13:22:00,,0824.1,5.00,0.00,28.6,27.7,00.0,37.6,30.4,09.1,0000.0,0003.80,0001.07,0000.55
2021-10-30 13:23:00,,0824.1,5.01,0.00,28.6,27.7,00.0,37.6,30.3,09.1,0000.0,0003.71,0001.05,0000.54
2021-10-30 13:24:00,,0824.1,5.01,0.00,28.6,27.7,00.0,37.6,30.3,09.1,0000.0,0003.73,0001.04,0000.55
2021-10-30 13:25:00,,0824.2,4.99,0.00,28.6,27.7,00.0,37.6,30.3,09.1,0000.0,0003.75,0001.03,0000.55
2021-10-30 13:26:00,,0824.2,5.00,0.00,28.6,27.7,00.0,37.6,30.3,09.1,0000.0,0003.80,0001.02,0000.54
2021-10-30 13:27:00,,0824.3,4.99,0.00,28.6,27.7,00.0,37.6,30.3,09.1,0000.0,0003.86,0001.01,0000.53
2021-10-30 13:28:00,,0824.2,5.01,0.00,28.6,27.7,00.0,37.6,30.3,09.1,0000.0,0003.91,0001.03,0000.54
2021-10-30 13:29:00,,0824.2,5.00,0.00,28.6,27.7,00.0,37.6,30.4,09.1,0000.0,0003.70,0001.02,0000.54
2021-10-30 13:30:00,,0824.3,4.99,0.00,28.6,27.7,00.0,37.6,30.4,09.1,0000.0,0003.03,0000.98,0000.54
2021-10-30 13:31:00,,0824.4,4.99,0.00,28.6,27.7,00.0,37.6,30.4,09.1,0000.0,0002.82,0000.97,0000.54
2021-10-30 13:32:00,,0824.2,5.00,0.00,28.6,27.7,00.0,37.6,30.4,09.1,0000.0,0002.43,0000.94,0000.53
2021-10-30 13:33:00,,0824.3,5.01,0.00,28.6,27.7,00.0,37.6,30.4,09.1,0000.0,0002.07,0000.92,0000.53
2021-10-30 13:34:00,,0824.3,4.99,0.00,28.6,27.7,00.0,37.6,30.4,09.1,0000.0,0002.00,0000.90,0000.52
2021-10-30 13:35:00,,0824.3,5.01,0.00,28.6,27.7,00.0,37.6,30.4,09.1,0000.0,0001.88,0000.87,0000.52
2021-10-30 13:36:00,,0824.3,5.01,0.00,28.6,27.7,00.0,37.6,30.4,09.1,0000.0,0001.96,0000.90,0000.52
2021-10-30 13:37:00,,0824.3,5.01,0.00,28.6,27.7,00.0,37.6,30.3,09.1,0000.0,0001.88,0000.88,0000.52
2021-10-30 13:38:00,,0824.3,4.99,0.00,28.6,27.7,00.0,37.6,30.3,09.1,0000.0,0001.91,0000.86,0000.52
2021-10-30 13:39:00,,0824.3,4.99,0.00,28.6,27.7,00.0,37.6,30.3,09.1,0000.0,0001.85,0000.82,0000.52
2021-10-30 13:40:00,,0824.3,5.01,0.00,28.6,27.7,00.0,37.6,30.3,09.1,0000.0,0001.74,0000.81,0000.51
2021-10-30 13:41:00,,0824.3,5.01,0.00,28.6,27.7,00.0,37.6,30.4,09.1,0000.0,0001.70,0000.79,0000.51
2021-10-30 13:42:00,,0824.4,5.00,0.00,28.6,27.7,00.0,37.6,30.4,09.1,0000.0,0001.63,0000.77,0000.51
2021-10-30 13:43:00,,0824.3,4.99,0.00,28.6,27.7,00.0,37.6,30.3,09.1,0000.0,0002.00,0000.78,0000.51
2021-10-30 13:44:00,,0824.4,5.01,0.00,28.6,27.7,00.0,37.6,30.3,09.1,0000.0,0002.16,0000.77,0000.51
2021-10-30 13:45:00,,0824.3,5.01,0.00,28.6,27.7,00.0,37.6,30.3,09.1,0000.0,0002.11,0000.77,0000.51
2021-10-30 13:46:00,,0824.3,5.00,0.00,28.6,27.7,00.0,37.6,30.4,09.1,0000.0,0002.12,0000.77,0000.51
2021-10-30 13:47:00,,0824.3,5.00,0.00,28.6,27.7,00.0,37.6,30.4,09.2,0000.0,0002.50,0000.73,0000.51
2021-10-30 13:48:00,,0824.3,5.00,0.00,28.6,27.7,00.0,37.6,30.4,09.2,0000.0,0002.47,0000.74,0000.51
2021-10-30 13:49:00,,0824.4,5.00,0.00,28.6,27.7,00.0,37.6,30.4,09.2,0000.0,0002.33,0000.73,0000.51
2021-10-30 13:50:00,,0824.4,5.00,0.00,28.6,27.7,00.0,37.6,30.4,09.2,0000.0,0002.39,0000.73,0000.51
2021-10-30 13:51:00,,0824.4,5.00,0.00,28.6,27.7,00.0,37.6,30.4,09.2,0000.0,0002.42,0000.71,0000.50
2021-10-30 13:52:00,,0824.4,5.00,0.00,28.6,27.7,00.0,37.6,30.4,09.2,0000.0,0002.46,0000.71,0000.50
2021-10-30 13:53:00,,0824.5,5.00,0.00,28.6,27.7,00.0,37.6,30.4,09.1,0000.0,0002.41,0000.69,0000.49
2021-10-30 13:54:00,,0824.4,5.01,0.00,28.6,27.8,00.0,37.6,30.4,09.1,0000.0,0002.10,0000.68,0000.49
2021-10-30 13:55:00,,0824.4,5.00,0.00,28.6,27.8,00.0,37.6,30.4,09.2,0000.0,0001.79,0000.67,0000.49
2021-10-30 13:56:00,,0824.4,5.01,0.00,28.6,27.8,00.0,37.6,30.4,09.2,0000.0,0001.86,0000.68,0000.49
2021-10-30 13:57:00,,0824.6,4.99,0.00,28.6,27.7,00.0,37.6,30.3,09.2,0000.0,0001.88,0000.68,0000.49
2021-10-30 13:58:00,,0824.6,5.00,0.00,28.6,27.7,00.0,37.6,30.4,09.2,0000.0,0001.34,0000.69,0000.49
2021-10-30 13:59:00,,0824.5,5.01,0.00,28.6,27.7,00.0,37.6,30.4,09.2,0000.0,0001.30,0000.66,0000.48
